| time (UTC) | temp F | wind direction | speed MPH | gust MPH | rain 1hr in | rain 24hr in | rain mn in | humidity % | barometer mb |
| 20260507170056 | 60 | 0 | 1.0 | 3.0 | 0.00 | 0.09 | 0.02 | 49 | 1013.5 |
| 20260507164624 | 60 | 240 | 1.0 | 2.0 | 0.00 | 0.09 | 0.02 | 50 | 1013.7 |
| 20260507163100 | 59 | 33 | 2.0 | 4.0 | 0.00 | 0.09 | 0.02 | 51 | 1013.9 |
| 20260507161607 | 58 | 101 | 1.0 | 6.0 | 0.00 | 0.09 | 0.02 | 55 | 1014.1 |
| 20260507160058 | 55 | 41 | 1.0 | 5.0 | 0.00 | 0.09 | 0.02 | 58 | 1014.2 |
| 20260507154555 | 54 | 0 | 0.0 | 3.0 | 0.00 | 0.09 | 0.02 | 59 | 1014.2 |
| 20260507153056 | 53 | 0 | 0.0 | 2.0 | 0.00 | 0.09 | 0.02 | 65 | 1014.5 |
| 20260507151601 | 53 | 90 | 0.0 | 2.0 | 0.00 | 0.09 | 0.02 | 63 | 1014.8 |
| 20260507150107 | 53 | 0 | 0.0 | 2.0 | 0.00 | 0.09 | 0.02 | 63 | 1014.8 |
| 20260507144605 | 52 | 78 | 0.0 | 2.0 | 0.00 | 0.12 | 0.02 | 66 | 1015.2 |
| 20260507143111 | 51 | 0 | 0.0 | 1.0 | 0.00 | 0.12 | 0.02 | 68 | 1015.3 |
| 20260507141624 | 50 | 60 | 0.0 | 3.0 | 0.00 | 0.12 | 0.02 | 68 | 1015.2 |
| 20260507140100 | 49 | 58 | 1.0 | 2.0 | 0.00 | 0.12 | 0.02 | 68 | 1015.3 |
| 20260507134608 | 49 | 132 | 1.0 | 4.0 | 0.00 | 0.18 | 0.02 | 71 | 1015.5 |
| 20260507133110 | 50 | 44 | 0.0 | 3.0 | 0.00 | 0.18 | 0.02 | 69 | 1015.8 |
| 20260507131613 | 49 | 0 | 1.0 | 5.0 | 0.00 | 0.18 | 0.02 | 68 | 1015.4 |
| 20260507130058 | 49 | 57 | 0.0 | 3.0 | 0.00 | 0.18 | 0.02 | 70 | 1015.3 |
| 20260507124557 | 49 | 0 | 0.0 | 1.0 | 0.00 | 0.27 | 0.02 | 73 | 1015.5 |
| 20260507123112 | 49 | 0 | 0.0 | 1.0 | 0.00 | 0.27 | 0.02 | 72 | 1015.7 |
| 20260507121557 | 49 | 71 | 0.0 | 3.0 | 0.00 | 0.27 | 0.02 | 71 | 1015.4 |
| 20260507120058 | 49 | 0 | 0.0 | 3.0 | 0.00 | 0.27 | 0.02 | 72 | 1015.3 |
| 20260507114559 | 49 | 108 | 0.0 | 3.0 | 0.00 | 0.33 | 0.02 | 75 | 1015.2 |
| 20260507113057 | 50 | 68 | 0.0 | 2.0 | 0.00 | 0.33 | 0.02 | 71 | 1015.1 |
| 20260507111557 | 50 | 0 | 0.0 | 3.0 | 0.00 | 0.33 | 0.02 | 74 | 1014.7 |
| 20260507110057 | 50 | 0 | 1.0 | 3.0 | 0.00 | 0.33 | 0.02 | 80 | 1014.9 |
| 20260507104600 | 50 | 0 | 0.0 | 1.0 | 0.00 | 0.33 | 0.02 | 83 | 1014.9 |
| 20260507103056 | 50 | 0 | 0.0 | 1.0 | 0.00 | 0.33 | 0.02 | 83 | 1014.5 |
| 20260507101557 | 50 | 75 | 0.0 | 2.0 | 0.00 | 0.33 | 0.02 | 83 | 1014.4 |
| 20260507100100 | 50 | 69 | 0.0 | 2.0 | 0.00 | 0.33 | 0.02 | 83 | 1014.3 |
| 20260507094554 | 50 | 0 | 0.0 | 2.0 | 0.00 | 0.33 | 0.02 | 83 | 1014.3 |
| 20260507093057 | 50 | 0 | 0.0 | 1.0 | 0.00 | 0.33 | 0.02 | 83 | 1014.2 |
| 20260507091556 | 50 | 84 | 1.0 | 2.0 | 0.00 | 0.33 | 0.02 | 83 | 1013.9 |
| 20260507090101 | 50 | 86 | 2.0 | 3.0 | 0.00 | 0.33 | 0.02 | 84 | 1013.9 |
| 20260507084601 | 50 | 112 | 1.0 | 3.0 | 0.00 | 0.33 | 0.02 | 86 | 1014.0 |
| 20260507083101 | 50 | 0 | 0.0 | 0.0 | 0.00 | 0.33 | 0.02 | 86 | 1013.9 |
| 20260507081603 | 50 | 0 | 0.0 | 1.0 | 0.00 | 0.33 | 0.02 | 87 | 1014.0 |
| 20260507080119 | 50 | 0 | 0.0 | 2.0 | 0.00 | 0.33 | 0.02 | 87 | 1013.7 |
| 20260507074604 | 50 | 91 | 1.0 | 4.0 | 0.00 | 0.33 | 0.02 | 87 | 1013.5 |
| 20260507073108 | 50 | 90 | 2.0 | 3.0 | 0.00 | 0.33 | 0.02 | 90 | 1013.5 |
| 20260507071559 | 50 | 60 | 1.0 | 3.0 | 0.01 | 0.33 | 0.02 | 92 | 1013.4 |
| 20260507070105 | 50 | 75 | 1.0 | 3.0 | 0.01 | 0.33 | 0.02 | 93 | 1013.5 |
| 20260507064631 | 50 | 70 | 1.0 | 4.0 | 0.01 | 0.33 | 0.02 | 93 | 1013.5 |
| 20260507063114 | 50 | 83 | 2.0 | 6.0 | 0.01 | 0.33 | 0.02 | 93 | 1013.5 |
| 20260507061559 | 50 | 63 | 2.0 | 5.0 | 0.00 | 0.32 | 0.01 | 93 | 1013.6 |
| 20260507060112 | 51 | 97 | 1.0 | 4.0 | 0.01 | 0.32 | 0.01 | 93 | 1013.6 |
| 20260507054606 | 51 | 91 | 1.0 | 4.0 | 0.01 | 0.32 | 0.01 | 93 | 1013.6 |
| 20260507053106 | 51 | 83 | 1.0 | 4.0 | 0.01 | 0.32 | 0.01 | 93 | 1013.6 |
| 20260507051607 | 52 | 116 | 1.0 | 4.0 | 0.01 | 0.32 | 0.01 | 92 | 1013.7 |
| 20260507050056 | 52 | 79 | 2.0 | 4.0 | 0.00 | 0.31 | 0.00 | 92 | 1013.7 |
| 20260507044559 | 52 | 44 | 2.0 | 5.0 | 0.03 | 0.31 | 0.00 | 92 | 1013.2 |
| 20260507043057 | 53 | 101 | 1.0 | 2.0 | 0.03 | 0.31 | 0.00 | 93 | 1014.0 |
| 20260507041556 | 53 | 75 | 0.0 | 3.0 | 0.03 | 0.31 | 0.00 | 93 | 1013.2 |
| 20260507040057 | 55 | 86 | 3.0 | 6.0 | 0.03 | 0.31 | 0.00 | 91 | 1013.6 |
| 20260507034554 | 55 | 100 | 1.0 | 3.0 | 0.01 | 0.28 | 0.28 | 91 | 1013.5 |
| 20260507033055 | 55 | 63 | 1.0 | 4.0 | 0.01 | 0.28 | 0.28 | 91 | 1012.9 |
| 20260507031554 | 56 | 77 | 2.0 | 4.0 | 0.01 | 0.28 | 0.28 | 91 | 1013.1 |
| 20260507030055 | 56 | 50 | 2.0 | 4.0 | 0.01 | 0.28 | 0.28 | 91 | 1013.4 |
| 20260507024559 | 57 | 99 | 2.0 | 4.0 | 0.00 | 0.27 | 0.27 | 89 | 1012.9 |
| 20260507023054 | 57 | 108 | 2.0 | 6.0 | 0.00 | 0.27 | 0.27 | 88 | 1012.6 |
| 20260507021557 | 58 | 70 | 2.0 | 7.0 | 0.00 | 0.27 | 0.27 | 88 | 1012.7 |
| 20260507020115 | 58 | 86 | 3.0 | 5.0 | 0.00 | 0.27 | 0.27 | 90 | 1012.8 |
| 20260507014559 | 58 | 89 | 2.0 | 4.0 | 0.00 | 0.27 | 0.27 | 93 | 1012.7 |
| 20260507013059 | 59 | 81 | 2.0 | 3.0 | 0.00 | 0.27 | 0.27 | 93 | 1012.6 |
| 20260507011556 | 59 | 47 | 2.0 | 4.0 | 0.00 | 0.27 | 0.27 | 94 | 1012.8 |
| 20260507010109 | 60 | 94 | 1.0 | 5.0 | 0.00 | 0.27 | 0.27 | 94 | 1013.1 |
| 20260507004555 | 61 | 87 | 1.0 | 3.0 | 0.00 | 0.27 | 0.27 | 95 | 1012.8 |
| 20260507003055 | 61 | 68 | 1.0 | 2.0 | 0.00 | 0.27 | 0.27 | 95 | 1012.6 |
| 20260507001558 | 62 | 78 | 0.0 | 2.0 | 0.01 | 0.27 | 0.27 | 95 | 1012.7 |
| 20260507000100 | 62 | 77 | 1.0 | 2.0 | 0.03 | 0.27 | 0.27 | 95 | 1012.3 |
| 20260506234600 | 62 | 68 | 0.0 | 1.0 | 0.03 | 0.27 | 0.27 | 94 | 1012.1 |
| 20260506233055 | 63 | 0 | 0.0 | 1.0 | 0.03 | 0.27 | 0.27 | 92 | 1012.0 |
| 20260506231609 | 64 | 121 | 0.0 | 1.0 | 0.02 | 0.26 | 0.26 | 90 | 1011.7 |
| 20260506230116 | 65 | 0 | 0.0 | 1.0 | 0.00 | 0.24 | 0.24 | 87 | 1011.4 |
| 20260506224603 | 65 | 0 | 0.0 | 1.0 | 0.00 | 0.24 | 0.24 | 86 | 1011.4 |
| 20260506223103 | 65 | 0 | 0.0 | 3.0 | 0.00 | 0.24 | 0.24 | 86 | 1011.2 |
| 20260506221624 | 65 | 266 | 0.0 | 3.0 | 0.00 | 0.24 | 0.24 | 85 | 1011.1 |
| 20260506220120 | 66 | 203 | 1.0 | 4.0 | 0.00 | 0.24 | 0.24 | 83 | 1011.0 |
| 20260506214558 | 66 | 204 | 1.0 | 3.0 | 0.00 | 0.24 | 0.24 | 84 | 1010.9 |
| 20260506213110 | 66 | 259 | 0.0 | 5.0 | 0.00 | 0.24 | 0.24 | 83 | 1011.0 |
| 20260506211559 | 67 | 267 | 1.0 | 6.0 | 0.00 | 0.24 | 0.24 | 82 | 1010.9 |
| 20260506210105 | 67 | 115 | 0.0 | 6.0 | 0.00 | 0.24 | 0.24 | 82 | 1010.8 |
| 20260506204605 | 67 | 229 | 0.0 | 4.0 | 0.00 | 0.24 | 0.24 | 81 | 1010.6 |
| 20260506203100 | 67 | 189 | 1.0 | 4.0 | 0.00 | 0.24 | 0.24 | 82 | 1010.4 |
| 20260506201556 | 66 | 137 | 0.0 | 12.0 | 0.00 | 0.24 | 0.24 | 82 | 1010.7 |
| 20260506200055 | 66 | 333 | 1.0 | 5.0 | 0.00 | 0.24 | 0.24 | 84 | 1010.6 |
| 20260506194557 | 65 | 98 | 1.0 | 5.0 | 0.00 | 0.24 | 0.24 | 85 | 1010.7 |
| 20260506193054 | 65 | 148 | 1.0 | 10.0 | 0.00 | 0.24 | 0.24 | 84 | 1010.7 |
| 20260506191611 | 65 | 253 | 1.0 | 6.0 | 0.00 | 0.24 | 0.24 | 84 | 1010.8 |
| 20260506190058 | 64 | 225 | 3.0 | 13.0 | 0.00 | 0.24 | 0.24 | 85 | 1010.9 |
| 20260506184625 | 63 | 293 | 2.0 | 8.0 | 0.00 | 0.24 | 0.24 | 86 | 1010.9 |
| 20260506183115 | 63 | 10 | 2.0 | 5.0 | 0.00 | 0.24 | 0.24 | 87 | 1011.1 |
| 20260506181602 | 62 | 90 | 1.0 | 9.0 | 0.00 | 0.24 | 0.24 | 88 | 1011.2 |
| 20260506180059 | 62 | 150 | 1.0 | 5.0 | 0.00 | 0.24 | 0.24 | 87 | 1011.3 |
| 20260506174556 | 62 | 121 | 0.0 | 4.0 | 0.00 | 0.24 | 0.24 | 88 | 1011.4 |
| 20260506173058 | 62 | 223 | 1.0 | 6.0 | 0.00 | 0.24 | 0.24 | 87 | 1011.4 |
| 20260506171607 | 61 | 124 | 1.0 | 6.0 | 0.00 | 0.24 | 0.24 | 89 | 1011.6 |